Temp
63 62 63 62 62 63 64 64 64 64 63 63 63 62 60 60 57 55 55 56 57 62 67 65 70 73 72 71 68 67 66 64 62 63 61 60 60 58 57 58 59 59 59 59 59 57 57 57 57 60 60 60 61 61 59 58 58 57 59 62 62 60 59 59 57 61 63 66 65 61 61 59 59 59
62 62 62 63 62 64 64 64 64 63 63 63 63 62 63 61 58 57 55 57 60 61 67 68 65 72 72 71 66 67 66 62 63 63 62 60 60 57 57 57 55 56 57 57 56 54 56 58 59 62 60 60 60 58 57 57 56 57 60 63 62 59 59 58 58 61 61 62 61 60 60 59 58 58
62 62 62 62 62 63 63 63 63 63 63 63 63 62 62 61 61 59 58 56 59 64 61 67 71 72 73 71 68 67 65 62 64 63 62 62 60 58 58 56 56 56 56 55 55 55 56 56 57 59 59 60 59 58 59 58 57 58 61 60 59 59 59 58 59 61 63 62 62 61 59 59 59 60
63 62 62 62 62 63 63 62 62 62 63 63 62 63 62 62 62 61 59 58 58 60 61 61 67 72 70 70 67 65 65 63 62 64 62 62 59 59 59 56 56 56 55 55 56 58 56 55 56 58 59 59 59 59 59 58 59 59 57 56 57 58 57 57 57 62 63 62 62 62 59 60 60 60
62 62 62 62 63 64 63 62 63 63 63 63 62 63 62 61 62 60 59 58 58 60 62 62 62 65 68 68 68 65 63 61 63 63 63 62 59 59 59 58 55 55 55 54 53 54 54 54 58 59 58 59 58 58 57 57 57 55 54 54 54 54 57 58 56 58 62 61 60 59 59 59 59 59
62 62 62 62 63 64 64 63 63 63 63 63 62 62 62 61 61 62 60 59 58 58 59 60 62 63 65 67 69 65 62 61 63 64 63 62 61 60 59 58 57 54 54 53 52 53 53 52 55 55 54 54 54 54 54 53 52 54 53 50 50 55 56 58 56 55 58 59 59 58 58 58 58 58
63 62 62 62 63 64 63 63 63 63 63 63 63 63 62 62 61 61 62 60 58 58 58 59 61 62 64 65 67 67 65 64 65 65 63 62 62 62 60 59 59 53 53 52 52 53 52 52 52 52 53 52 52 53 53 52 51 51 51 49 50 51 52 53 54 54 55 58 58 57 57 56 57 59
62 62 63 63 63 63 62 62 62 62 63 63 63 63 62 62 61 61 61 61 60 60 59 59 61 61 61 67 69 68 66 65 65 67 64 64 63 63 62 60 60 56 52 52 52 53 52 51 51 51 51 52 52 51 51 51 51 50 50 50 49 49 49 49 49 50 52 55 56 55 55 55 57 59
63 62 62 63 63 62 60 61 61 61 62 63 62 62 62 61 61 62 61 61 60 58 59 59 61 61 61 63 65 68 64 64 64 67 64 63 63 62 62 62 63 57 52 52 52 52 51 51 51 51 51 51 51 50 50 51 51 51 50 50 49 49 48 48 48 48 49 48 49 53 55 54 56 57
62 61 62 62 62 62 61 60 61 61 61 62 61 61 61 61 61 60 60 60 60 60 59 59 59 60 61 60 60 66 67 64 63 65 64 64 64 62 60 61 63 61 55 55 54 52 51 51 51 51 51 50 50 50 50 50 51 51 50 50 49 49 49 48 47 47 47 47 46 48 52 53 54 55
62 62 62 61 62 62 62 61 61 61 61 61 61 61 62 62 61 60 60 60 60 60 59 58 59 59 61 62 59 64 69 65 66 63 61 60 64 62 61 59 63 62 56 55 53 54 53 53 53 51 50 50 51 50 50 50 51 51 50 49 49 49 48 48 47 47 46 47 46 46 45 48 51 53
62 62 62 62 62 62 62 62 61 61 61 61 61 62 62 62 60 59 59 59 59 59 59 58 57 57 57 59 60 61 62 63 62 67 63 59 60 61 61 62 61 59 56 55 55 53 52 52 53 51 50 51 51 51 50 51 51 51 50 49 48 48 48 48 47 47 47 46 46 45 45 44 45 49
62 62 61 61 61 62 62 58 58 59 59 61 60 61 61 61 61 60 59 59 59 58 58 57 57 56 57 57 57 57 57 56 62 65 65 62 63 63 61 63 65 61 56 56 56 55 54 53 52 53 52 52 51 51 51 52 52 51 49 49 48 48 48 47 47 47 47 47 47 46 45 45 44 44
60 62 62 62 61 58 57 55 52 51 53 56 60 61 61 61 60 59 58 58 58 58 57 57 57 56 55 56 57 58 58 60 63 63 64 61 62 61 61 61 61 62 59 56 54 56 57 54 54 53 53 55 54 53 52 53 53 51 49 49 49 48 48 47 47 47 47 46 46 46 45 44 44 43
58 60 61 61 61 59 58 57 52 50 50 50 51 54 57 59 61 59 58 58 58 57 57 58 57 56 56 57 58 58 60 61 64 64 64 62 59 58 58 57 57 61 60 57 56 55 57 56 54 54 55 55 55 54 54 51 51 51 50 49 48 48 48 47 47 46 46 46 45 45 45 44 45 43
57 58 60 60 61 61 61 61 59 54 49 48 49 49 49 50 53 54 59 58 58 58 57 57 57 57 57 58 58 58 57 57 60 65 64 64 61 60 59 59 58 60 61 58 56 56 57 57 56 55 57 57 56 56 54 51 50 50 50 49 48 48 48 47 47 46 46 45 45 44 44 44 43 42
57 58 58 59 60 61 59 60 60 60 58 50 47 48 48 47 47 47 49 52 60 60 58 58 58 58 58 58 58 59 59 60 59 61 63 64 63 63 62 61 61 58 62 60 57 56 56 57 55 55 57 58 57 57 52 51 50 49 49 48 48 48 47 47 46 46 45 45 45 44 44 44 43 42
53 54 56 58 59 59 60 60 60 60 60 60 56 54 54 56 54 47 47 48 50 55 60 59 58 60 60 59 60 61 60 59 58 60 63 64 63 62 63 64 63 62 64 61 58 54 55 57 56 56 55 54 56 55 53 50 49 48 48 47 47 47 46 46 46 46 45 45 45 45 44 43 43 42
49 49 49 49 53 58 60 60 59 60 60 59 59 57 56 57 58 57 55 55 57 58 60 60 61 61 61 62 62 60 60 61 60 61 63 65 66 65 59 60 60 62 65 65 61 57 56 58 57 53 48 49 46 44 47 50 49 48 47 47 46 46 46 46 46 46 45 45 45 44 43 43 42 42
47 48 48 46 44 44 51 53 49 52 58 60 59 57 57 57 58 57 56 52 54 59 61 61 61 61 61 57 59 59 60 60 59 58 60 61 61 60 59 58 55 54 52 55 61 57 53 57 56 47 47 48 46 46 46 47 48 47 47 46 46 46 46 46 45 45 45 45 46 46 44 43 42 42
45 46 48 46 43 43 44 41 37 40 48 59 59 58 57 58 58 57 54 46 46 47 50 51 51 52 51 50 50 50 52 56 58 58 57 56 58 59 56 56 54 51 52 50 52 53 51 52 50 48 49 48 46 47 46 47 47 47 47 46 46 46 46 45 45 46 46 46 46 46 45 44 42 43
44 45 48 47 42 41 42 39 37 39 46 56 59 58 57 57 56 55 55 53 50 45 44 45 48 49 47 48 48 49 49 49 53 59 56 56 55 56 56 53 50 51 50 51 50 53 50 52 52 49 49 50 49 48 48 48 48 47 46 46 46 46 46 46 46 46 46 46 46 46 45 44 44 45
42 43 44 45 42 41 40 38 38 37 44 55 56 58 57 57 56 56 55 53 52 51 52 52 52 51 49 53 55 53 47 48 54 59 59 57 56 54 54 53 52 52 52 52 51 53 50 52 52 53 50 46 48 48 47 48 49 50 49 48 47 45 45 45 46 46 46 46 46 47 45 44 45 45
41 41 41 42 40 38 38 38 38 38 37 46 55 57 57 56 55 56 54 54 53 53 54 54 54 54 54 54 53 53 54 55 57 57 58 58 58 56 53 52 51 50 50 51 48 53 51 51 50 50 52 48 44 48 47 48 49 49 49 48 46 45 45 45 45 45 45 46 46 46 46 46 46 45
39 39 39 40 40 38 38 38 39 38 39 39 47 54 57 57 55 52 54 52 51 54 53 52 53 53 53 53 53 52 52 51 51 52 53 56 58 57 54 54 54 48 47 50 45 55 51 50 49 49 50 49 49 47 47 47 49 48 49 48 46 46 47 46 45 45 44 44 44 45 45 46 46 45
38 38 39 39 39 38 38 38 38 38 39 39 42 41 38 44 44 53 53 53 53 53 52 52 51 51 51 50 50 49 49 49 49 50 50 50 51 52 54 54 51 48 46 50 45 52 50 49 50 48 47 48 47 48 46 46 47 48 49 49 48 47 48 46 46 46 47 47 47 46 45 45 45 45
37 38 39 40 40 38 38 38 38 38 39 40 39 38 39 41 43 48 53 51 53 52 51 50 49 48 48 47 47 47 47 47 48 48 49 50 51 50 50 50 51 49 49 50 52 51 51 48 48 49 48 49 47 47 46 46 46 48 48 48 47 48 48 48 46 46 46 45 44 43 43 43 43 43
38 38 38 38 38 38 38 38 38 38 38 38 38 39 39 42 46 52 50 49 48 46 46 46 45 45 46 46 46 45 46 47 47 48 48 48 49 50 49 50 49 49 50 50 50 51 51 49 49 50 51 50 48 47 46 47 47 47 46 46 47 47 48 48 47 46 46 45 44 44 45 44 44 45
39 38 38 38 38 38 38 38 39 39 38 38 38 38 39 43 44 45 46 46 46 45 44 43 43 43 44 45 45 46 46 46 46 46 46 48 48 48 48 48 49 49 50 51 51 50 51 50 50 50 49 50 49 48 48 47 45 44 44 44 44 46 47 48 47 46 44 44 44 44 44 44 43 44
39 38 38 38 38 38 38 39 38 38 38 38 38 39 40 40 41 42 42 43 43 42 42 42 42 42 43 44 45 45 46 45 45 45 46 46 47 49 49 47 48 49 49 49 50 50 50 50 50 50 49 49 49 49 48 46 44 45 45 46 46 47 47 48 47 46 45 44 43 43 44 45 44 43
39 39 39 38 38 38 38 38 38 38 38 38 38 39 39 38 39 39 40 41 41 41 41 40 41 42 43 44 44 43 44 43 44 46 46 47 46 48 48 47 46 46 48 49 49 49 49 50 51 53 50 49 49 50 51 50 46 46 47 48 48 44 45 46 47 46 45 43 42 41 43 43 41 42
39 39 39 38 39 38 38 37 37 37 37 36 36 37 37 38 38 39 40 40 39 40 41 41 41 41 42 42 42 43 43 43 43 44 44 46 46 46 47 45 43 45 46 47 48 48 45 49 48 48 48 49 49 49 50 49 47 46 45 46 46 47 46 46 46 46 46 44 42 41 41 41 41 42
38 38 37 36 36 36 35 35 35 35 35 35 35 35 36 36 37 37 37 36 36 37 38 38 38 39 40 41 42 42 42 41 42 43 43 43 44 45 45 43 42 43 43 43 44 45 46 46 46 47 46 46 47 49 48 43 45 47 46 45 46 45 44 45 46 46 46 45 42 41 39 41 41 42
37 36 34 35 34 34 34 34 34 34 34 34 34 34 34 34 34 35 35 36 36 36 36 37 37 37 38 38 39 40 40 41 41 41 41 42 42 41 40 40 41 42 42 42 43 44 44 45 47 47 47 45 45 44 46 46 44 45 46 46 46 44 44 45 45 45 45 44 43 40 40 40 42 41
37 36 35 34 34 34 34 34 33 34 34 33 34 34 34 34 33 34 33 34 35 35 36 36 37 37 38 37 38 38 38 39 40 40 41 42 42 41 40 40 40 41 41 41 42 43 44 44 45 44 43 45 45 46 46 45 46 45 45 45 44 45 44 44 43 45 45 44 43 39 38 38 39 38
36 36 35 35 34 34 34 34 34 34 33 34 33 34 34 33 33 33 33 33 34 34 34 34 34 35 36 37 37 38 38 39 39 39 39 39 39 40 40 40 40 41 41 41 41 43 43 44 44 42 38 38 39 37 39 45 44 44 44 39 44 43 43 43 43 43 42 41 41 39 36 36 36 38
36 36 36 36 35 35 34 35 34 34 34 34 33 33 33 33 33 33 33 34 34 34 33 34 33 34 34 35 37 37 38 39 38 38 38 38 38 38 38 38 38 39 39 40 41 41 41 41 42 41 38 37 37 36 36 38 42 43 44 42 39 40 41 40 40 39 40 41 39 39 37 36 36 37
36 37 36 36 36 36 35 35 35 35 34 34 34 34 34 34 34 35 35 34 34 34 34 34 34 34 35 36 36 37 38 37 37 37 37 37 38 37 38 38 38 38 38 38 40 42 42 42 40 39 40 37 36 35 36 36 34 39 40 42 38 36 38 39 37 37 38 37 38 35 35 35 35 37
40 38 37 36 36 35 35 35 35 35 35 35 35 34 34 35 35 35 35 35 35 35 35 36 36 36 36 37 37 37 37 37 37 37 37 36 36 36 36 37 37 37 37 37 39 41 41 40 40 40 41 39 37 37 37 36 35 38 37 40 40 38 36 37 35 36 35 34 34 35 35 35 37 37
39 39 39 39 38 37 35 35 35 35 35 35 35 35 35 35 35 35 36 36 36 36 36 36 36 37 36 36 37 37 37 36 36 36 36 36 36 36 36 37 37 37 37 37 37 39 40 39 41 41 41 42 40 38 37 37 35 35 36 38 39 40 37 34 35 35 34 34 35 35 34 34 34 35
40 40 39 39 39 38 36 35 35 35 35 35 35 35 35 34 35 35 36 36 35 36 37 37 36 36 36 36 36 36 36 36 36 36 36 37 36 36 37 37 37 38 38 36 37 37 38 40 40 38 40 38 38 41 40 38 36 35 36 35 38 39 40 41 38 34 35 35 34 35 34 33 33 35
40 40 41 40 40 39 38 36 35 34 35 35 35 35 35 35 35 37 36 35 35 36 36 36 36 36 36 36 35 35 36 35 35 36 36 37 37 37 37 38 38 37 38 37 37 38 41 40 38 42 42 40 40 38 35 35 35 34 35 36 35 37 38 38 39 39 39 36 34 34 32 33 32 32
40 40 40 40 41 41 40 38 38 36 35 35 35 36 35 36 36 36 36 36 36 36 35 35 35 35 35 35 35 35 35 36 36 36 36 36 37 37 37 36 36 37 37 37 37 37 38 39 40 37 37 36 35 35 36 35 35 34 34 34 36 36 36 37 37 37 37 38 37 35 31 34 32 32
39 39 40 40 40 40 40 41 40 39 37 35 35 34 34 35 36 36 36 36 36 36 35 35 35 35 36 35 35 36 36 36 36 36 36 36 36 36 37 36 36 35 35 35 36 37 36 36 35 37 39 37 36 37 35 34 34 34 34 33 34 35 36 36 36 36 36 37 35 34 34 35 36 37
39 39 39 39 39 39 39 40 39 40 39 35 34 34 35 35 36 36 37 37 37 37 36 36 36 36 36 36 37 37 36 37 37 36 35 35 35 36 36 37 36 36 36 36 36 36 37 37 37 35 36 36 36 36 36 37 35 33 33 34 34 34 35 35 35 36 36 37 35 33 33 34 34 33
MSLP
1015.32 1015.12 1014.92 1014.92 1014.68 1014.68 1014.72 1014.88 1015.12 1015.36 1015.52 1015.60 1015.68 1015.84 1016.20 1016.52 1017.08 1017.76 1017.80 1017.40 1017.36 1017.00 1016.64 1016.88 1016.12 1015.84 1016.16 1016.36 1016.68 1017.00 1017.36 1017.72 1018.20 1018.64 1018.96 1019.20 1019.44 1019.72 1020.12 1020.36 1020.60 1020.88 1021.16 1021.40 1021.60 1021.84 1022.08 1022.32 1022.56 1022.68 1022.84 1023.04 1023.16 1023.28 1023.48 1023.68 1023.84 1024.04 1024.16 1024.28 1024.48 1024.64 1024.76 1024.88 1025.00 1025.04 1025.04 1025.00 1025.08 1025.16 1025.32 1025.52 1025.68 1025.84
1014.96 1015.00 1014.92 1014.56 1014.36 1014.24 1014.40 1014.40 1014.52 1014.76 1015.04 1015.36 1015.68 1015.56 1015.44 1015.76 1016.88 1016.88 1017.12 1016.88 1016.44 1016.32 1015.96 1015.76 1015.96 1015.68 1015.80 1016.00 1016.52 1016.68 1017.04 1017.36 1017.80 1018.20 1018.64 1018.88 1019.04 1019.32 1019.80 1020.16 1020.44 1020.72 1020.96 1021.20 1021.44 1021.64 1021.88 1022.12 1022.36 1022.52 1022.72 1022.88 1023.04 1023.20 1023.40 1023.56 1023.72 1023.84 1023.96 1024.08 1024.28 1024.48 1024.68 1024.84 1024.92 1025.00 1025.04 1025.08 1025.16 1025.20 1025.32 1025.48 1025.64 1025.80
1014.32 1014.52 1014.60 1014.44 1014.36 1014.24 1014.16 1014.12 1014.20 1014.32 1014.48 1014.80 1015.16 1015.20 1015.12 1015.44 1015.76 1016.28 1016.40 1016.72 1015.80 1015.48 1015.84 1015.44 1015.08 1015.24 1015.36 1015.72 1016.20 1016.56 1016.88 1017.28 1017.44 1017.84 1018.28 1018.48 1018.72 1019.08 1019.48 1019.84 1020.20 1020.48 1020.72 1021.00 1021.24 1021.44 1021.64 1021.92 1022.16 1022.32 1022.52 1022.72 1022.88 1023.04 1023.24 1023.40 1023.56 1023.68 1023.76 1023.88 1024.04 1024.24 1024.40 1024.60 1024.76 1024.84 1024.96 1025.04 1025.16 1025.28 1025.36 1025.48 1025.56 1025.68
1013.56 1013.64 1013.88 1013.88 1013.76 1013.56 1013.52 1013.76 1014.04 1014.08 1014.16 1014.24 1014.60 1014.84 1014.76 1014.92 1015.16 1015.52 1015.84 1015.96 1015.84 1015.32 1015.36 1015.72 1015.52 1014.96 1015.36 1015.48 1016.08 1016.48 1016.92 1017.16 1017.24 1017.52 1017.92 1018.16 1018.64 1019.08 1019.28 1019.64 1019.92 1020.24 1020.52 1020.76 1021.00 1021.16 1021.40 1021.68 1021.92 1022.12 1022.32 1022.52 1022.68 1022.84 1023.00 1023.20 1023.40 1023.52 1023.60 1023.72 1023.84 1024.00 1024.16 1024.32 1024.52 1024.64 1024.80 1024.96 1025.08 1025.16 1025.28 1025.36 1025.44 1025.52
1013.24 1013.24 1013.24 1013.24 1013.24 1013.32 1013.44 1013.36 1013.44 1013.52 1013.60 1013.84 1014.08 1014.28 1014.32 1014.52 1014.76 1015.28 1015.64 1015.60 1015.52 1015.40 1015.24 1015.40 1015.88 1015.88 1015.72 1015.80 1015.72 1016.32 1016.76 1017.32 1017.48 1017.52 1017.72 1018.08 1018.52 1018.80 1019.12 1019.44 1019.76 1020.00 1020.28 1020.56 1020.76 1020.96 1021.16 1021.40 1021.64 1021.88 1022.08 1022.28 1022.44 1022.64 1022.80 1023.00 1023.20 1023.40 1023.56 1023.64 1023.76 1023.88 1024.00 1024.12 1024.32 1024.48 1024.60 1024.80 1024.92 1025.04 1025.16 1025.24 1025.32 1025.40
1013.12 1013.00 1012.88 1012.64 1012.56 1012.56 1012.64 1012.68 1012.76 1012.80 1013.08 1013.32 1013.84 1013.92 1013.92 1014.28 1014.44 1014.52 1014.96 1015.12 1015.28 1015.44 1015.20 1015.32 1015.16 1015.28 1015.92 1016.04 1015.68 1015.84 1016.52 1016.92 1017.12 1017.44 1017.76 1018.12 1018.20 1018.44 1018.84 1019.24 1019.56 1019.84 1020.08 1020.32 1020.56 1020.76 1020.92 1021.12 1021.32 1021.56 1021.80 1022.00 1022.24 1022.44 1022.68 1022.88 1023.08 1023.28 1023.48 1023.60 1023.72 1023.80 1023.92 1024.00 1024.16 1024.36 1024.52 1024.64 1024.76 1024.88 1025.00 1025.12 1025.20 1025.32
1012.80 1012.64 1012.40 1012.16 1012.00 1011.92 1012.04 1012.08 1012.04 1012.12 1012.60 1012.96 1013.16 1013.20 1013.36 1013.64 1013.96 1014.16 1014.24 1014.68 1015.08 1015.08 1015.04 1015.04 1015.08 1015.28 1015.52 1015.88 1015.68 1015.56 1015.72 1016.12 1016.48 1016.96 1017.44 1017.76 1018.12 1018.24 1018.48 1018.88 1019.16 1019.56 1019.80 1020.08 1020.32 1020.52 1020.68 1020.88 1021.08 1021.32 1021.56 1021.80 1022.00 1022.24 1022.48 1022.72 1022.92 1023.08 1023.28 1023.44 1023.60 1023.72 1023.84 1023.96 1024.08 1024.24 1024.36 1024.48 1024.64 1024.76 1024.88 1025.00 1025.12 1025.16
1012.44 1012.24 1012.04 1011.76 1011.56 1011.32 1011.44 1011.52 1011.72 1011.92 1012.16 1012.48 1012.60 1012.76 1012.84 1013.12 1013.52 1013.76 1013.88 1013.96 1014.16 1014.40 1014.72 1014.92 1014.88 1014.96 1015.36 1015.20 1015.04 1015.36 1015.56 1015.92 1016.28 1016.40 1016.80 1017.24 1017.56 1017.88 1018.28 1018.48 1018.76 1019.16 1019.52 1019.76 1020.04 1020.28 1020.48 1020.64 1020.84 1021.08 1021.32 1021.60 1021.84 1022.04 1022.24 1022.44 1022.68 1022.88 1023.08 1023.28 1023.44 1023.56 1023.68 1023.84 1023.96 1024.12 1024.24 1024.36 1024.48 1024.64 1024.76 1024.92 1025.00 1025.00
1012.04 1011.92 1011.76 1011.60 1011.56 1011.40 1011.12 1011.16 1011.48 1011.64 1011.76 1011.88 1012.16 1012.32 1012.48 1012.88 1013.12 1013.36 1013.52 1013.52 1013.64 1014.00 1014.20 1014.40 1014.36 1014.44 1014.52 1014.52 1014.96 1015.00 1015.68 1016.04 1016.24 1016.20 1016.56 1016.88 1017.16 1017.52 1017.68 1018.08 1018.28 1018.64 1019.16 1019.48 1019.76 1020.04 1020.24 1020.40 1020.56 1020.76 1021.04 1021.32 1021.60 1021.84 1022.00 1022.20 1022.40 1022.60 1022.84 1023.04 1023.20 1023.36 1023.52 1023.68 1023.84 1024.00 1024.16 1024.28 1024.44 1024.56 1024.68 1024.80 1024.84 1024.88
1011.80 1011.68 1011.52 1011.40 1011.36 1011.28 1011.28 1011.24 1011.32 1011.52 1011.64 1011.80 1011.92 1012.12 1012.32 1012.56 1012.76 1013.00 1013.16 1013.36 1013.40 1013.36 1013.72 1014.12 1014.32 1014.44 1014.36 1014.44 1014.72 1015.12 1014.84 1015.36 1016.00 1016.16 1016.40 1016.64 1016.88 1017.20 1017.68 1017.80 1017.92 1018.32 1018.92 1019.40 1019.72 1020.00 1020.20 1020.24 1020.32 1020.52 1020.76 1021.04 1021.28 1021.52 1021.72 1021.92 1022.08 1022.32 1022.56 1022.72 1022.92 1023.12 1023.32 1023.52 1023.72 1023.88 1024.08 1024.20 1024.36 1024.48 1024.56 1024.64 1024.68 1024.68
1011.48 1011.36 1011.24 1011.16 1011.16 1011.16 1011.04 1011.00 1011.04 1011.16 1011.44 1011.60 1011.64 1011.76 1012.00 1012.12 1012.36 1012.56 1012.68 1012.84 1013.00 1013.12 1013.40 1013.68 1014.00 1014.12 1014.00 1013.96 1014.40 1014.44 1014.52 1014.84 1014.88 1015.56 1016.32 1016.84 1016.72 1016.92 1017.12 1017.56 1017.68 1017.92 1018.56 1018.68 1018.80 1019.08 1019.48 1019.76 1020.08 1020.20 1020.40 1020.64 1020.88 1021.12 1021.36 1021.60 1021.84 1022.08 1022.24 1022.40 1022.64 1022.88 1023.08 1023.32 1023.56 1023.80 1023.96 1024.12 1024.24 1024.36 1024.44 1024.52 1024.56 1024.56
1011.40 1011.16 1011.04 1010.84 1010.68 1010.68 1010.64 1010.60 1010.76 1011.04 1011.24 1011.28 1011.28 1011.24 1011.52 1011.72 1012.00 1012.24 1012.44 1012.60 1012.60 1012.72 1013.00 1013.48 1013.96 1014.28 1014.16 1014.08 1014.04 1014.40 1015.08 1015.16 1015.40 1015.04 1015.40 1016.16 1016.52 1016.68 1016.76 1016.76 1017.16 1017.60 1018.12 1018.68 1019.16 1019.32 1019.52 1019.72 1019.84 1020.04 1020.28 1020.40 1020.56 1020.76 1021.12 1021.40 1021.68 1021.84 1021.96 1022.16 1022.40 1022.64 1022.92 1023.20 1023.44 1023.68 1023.84 1024.00 1024.12 1024.20 1024.28 1024.36 1024.40 1024.44
1011.40 1011.00 1010.80 1010.60 1010.44 1010.36 1010.32 1010.32 1010.40 1010.60 1010.76 1010.96 1011.12 1011.08 1011.20 1011.36 1011.48 1011.76 1012.08 1012.08 1012.32 1012.52 1012.72 1013.12 1013.60 1014.08 1014.04 1013.88 1013.96 1014.20 1014.88 1015.40 1014.64 1014.48 1014.84 1015.36 1015.52 1015.76 1016.36 1016.52 1016.52 1016.84 1017.60 1018.12 1018.52 1018.96 1019.20 1019.64 1019.88 1020.08 1020.36 1020.28 1020.32 1020.56 1020.76 1021.04 1021.32 1021.44 1021.60 1021.84 1022.12 1022.48 1022.80 1023.08 1023.32 1023.52 1023.68 1023.84 1023.96 1024.04 1024.08 1024.16 1024.20 1024.28
1011.56 1011.00 1010.68 1010.44 1010.24 1010.12 1010.08 1010.16 1010.24 1010.40 1010.48 1010.52 1010.60 1010.64 1010.88 1010.92 1011.12 1011.28 1011.72 1011.88 1011.88 1012.16 1012.44 1012.72 1013.12 1013.40 1013.40 1013.36 1013.52 1013.60 1013.80 1014.24 1014.68 1014.68 1014.80 1015.12 1015.28 1015.68 1016.04 1016.24 1016.36 1016.48 1016.88 1017.60 1018.28 1018.40 1018.64 1019.00 1019.36 1019.68 1019.72 1019.52 1019.88 1020.08 1020.52 1020.64 1020.68 1020.80 1021.08 1021.44 1021.88 1022.28 1022.60 1022.88 1023.12 1023.36 1023.52 1023.68 1023.76 1023.84 1023.92 1023.96 1024.08 1024.16
1011.88 1011.20 1010.72 1010.40 1010.20 1010.12 1009.96 1009.96 1010.04 1010.08 1010.04 1010.08 1010.24 1010.40 1010.56 1010.48 1010.52 1010.80 1011.00 1011.20 1011.68 1012.00 1012.08 1012.12 1012.16 1012.32 1012.60 1012.84 1012.88 1013.04 1013.28 1013.76 1014.00 1013.96 1014.12 1014.44 1014.96 1015.44 1015.96 1016.44 1016.28 1016.28 1016.40 1017.04 1017.40 1017.88 1018.08 1018.52 1018.84 1019.00 1019.00 1018.96 1019.28 1019.64 1019.80 1019.84 1020.12 1020.32 1020.72 1021.24 1021.68 1022.08 1022.40 1022.72 1022.96 1023.16 1023.36 1023.48 1023.60 1023.68 1023.76 1023.88 1023.96 1024.08
1011.84 1011.28 1010.76 1010.40 1010.12 1009.84 1009.64 1009.60 1009.68 1009.76 1009.84 1009.92 1009.92 1010.00 1010.24 1010.24 1010.04 1009.92 1009.92 1010.40 1010.84 1011.28 1011.76 1011.84 1011.48 1011.76 1011.92 1012.12 1012.52 1012.68 1012.84 1013.44 1014.04 1013.56 1013.56 1013.84 1014.28 1014.72 1015.12 1015.24 1015.44 1015.16 1015.80 1016.32 1016.92 1017.08 1017.56 1017.88 1018.00 1018.28 1018.16 1018.20 1018.52 1018.76 1018.84 1019.24 1019.64 1020.00 1020.56 1021.08 1021.56 1021.96 1022.24 1022.52 1022.76 1023.00 1023.16 1023.32 1023.44 1023.52 1023.64 1023.80 1023.92 1024.00
1012.04 1011.40 1010.76 1010.32 1010.00 1009.76 1009.60 1009.48 1009.36 1009.32 1009.40 1009.60 1009.76 1009.88 1010.04 1010.12 1009.92 1009.76 1009.84 1009.76 1009.48 1009.88 1010.52 1011.04 1011.08 1010.88 1011.04 1011.52 1011.72 1011.76 1011.84 1012.16 1013.08 1013.36 1013.28 1013.32 1013.52 1013.72 1014.08 1014.28 1014.44 1014.84 1015.12 1015.88 1016.40 1016.72 1017.04 1017.48 1017.72 1017.76 1017.32 1017.60 1018.00 1018.32 1018.68 1019.04 1019.48 1020.00 1020.56 1020.96 1021.40 1021.68 1022.00 1022.32 1022.60 1022.88 1023.08 1023.20 1023.32 1023.48 1023.64 1023.80 1023.88 1024.00
1012.88 1012.08 1011.36 1010.44 1009.92 1009.56 1009.40 1009.28 1009.24 1009.20 1009.16 1009.12 1009.36 1009.60 1009.68 1009.68 1009.80 1010.00 1009.60 1009.48 1009.48 1009.60 1009.92 1010.32 1010.28 1010.12 1010.20 1010.48 1010.64 1010.80 1011.08 1011.80 1012.44 1012.80 1012.80 1012.68 1013.00 1013.28 1013.28 1013.16 1013.52 1013.88 1014.32 1015.04 1015.64 1016.32 1016.76 1016.96 1017.24 1017.12 1017.08 1017.44 1017.68 1018.00 1018.24 1018.72 1019.32 1019.88 1020.36 1020.80 1021.12 1021.48 1021.84 1022.20 1022.48 1022.72 1022.92 1023.08 1023.28 1023.44 1023.64 1023.80 1023.88 1024.00
1013.72 1013.20 1012.76 1012.20 1011.16 1009.80 1009.16 1009.00 1008.96 1008.92 1008.84 1008.88 1008.92 1009.04 1009.16 1009.28 1009.28 1009.32 1009.48 1009.52 1009.56 1009.68 1009.72 1009.88 1009.68 1009.60 1009.76 1009.88 1010.00 1010.68 1011.28 1011.16 1011.60 1011.92 1012.00 1012.00 1012.00 1012.36 1012.76 1013.20 1013.28 1013.64 1013.68 1014.00 1014.84 1015.52 1015.96 1016.48 1016.80 1016.88 1017.40 1017.64 1017.88 1018.12 1018.16 1018.40 1018.96 1019.52 1020.04 1020.48 1020.92 1021.32 1021.68 1022.04 1022.32 1022.56 1022.84 1023.08 1023.20 1023.48 1023.68 1023.80 1023.88 1024.00
1014.28 1013.68 1013.20 1012.84 1012.40 1011.84 1010.64 1009.72 1009.52 1009.00 1008.72 1008.68 1008.56 1008.76 1008.88 1008.88 1008.80 1008.84 1008.80 1008.80 1008.80 1008.84 1009.00 1009.08 1009.04 1009.16 1009.24 1009.20 1009.72 1010.40 1011.08 1011.32 1011.40 1011.40 1011.64 1011.80 1011.96 1012.40 1012.92 1013.28 1013.52 1013.84 1014.16 1014.16 1014.28 1014.80 1015.68 1015.96 1016.28 1017.68 1018.08 1017.92 1018.08 1018.44 1018.40 1018.48 1018.80 1019.36 1019.88 1020.36 1020.80 1021.16 1021.56 1021.96 1022.32 1022.64 1022.92 1023.12 1023.36 1023.64 1023.72 1023.76 1023.88 1024.04
1014.80 1014.28 1013.68 1013.32 1013.00 1012.40 1011.76 1011.24 1010.52 1009.76 1009.00 1008.48 1008.40 1008.40 1008.48 1008.28 1008.28 1008.28 1008.56 1008.80 1008.76 1008.76 1008.76 1008.68 1008.76 1008.88 1009.00 1009.24 1009.52 1009.96 1010.56 1010.84 1010.80 1011.08 1011.40 1011.84 1011.80 1012.08 1012.68 1013.04 1013.40 1013.84 1014.04 1014.28 1014.28 1014.64 1015.84 1016.16 1016.76 1018.04 1018.36 1018.40 1018.68 1018.80 1018.92 1019.08 1019.20 1019.48 1019.96 1020.40 1020.72 1021.08 1021.52 1021.92 1022.32 1022.64 1022.80 1022.88 1023.04 1023.32 1023.64 1023.80 1023.96 1024.04
1015.32 1014.84 1014.16 1013.68 1013.44 1012.92 1012.32 1011.68 1010.96 1010.04 1009.32 1008.64 1008.20 1008.24 1008.24 1008.24 1008.16 1008.12 1008.20 1008.60 1008.76 1008.92 1009.04 1009.12 1009.12 1009.08 1009.12 1009.32 1009.44 1009.68 1010.12 1010.40 1010.52 1010.64 1011.12 1011.48 1011.76 1011.92 1012.08 1012.64 1013.32 1013.88 1014.12 1014.16 1014.48 1014.48 1015.76 1016.36 1016.72 1017.64 1018.52 1018.56 1019.08 1019.16 1019.24 1019.44 1019.80 1019.92 1020.20 1020.44 1020.72 1021.16 1021.56 1021.96 1022.36 1022.68 1022.88 1023.00 1023.12 1023.32 1023.52 1023.76 1023.92 1024.16
1015.68 1015.12 1014.56 1014.16 1013.88 1013.44 1012.72 1011.80 1011.00 1010.28 1009.68 1008.76 1008.32 1008.04 1007.96 1007.92 1007.96 1007.60 1007.76 1008.04 1008.44 1008.72 1008.96 1009.04 1009.04 1009.20 1009.40 1009.64 1009.72 1009.80 1009.92 1010.08 1010.24 1010.24 1010.40 1010.88 1011.60 1012.12 1012.24 1012.52 1013.24 1013.64 1013.88 1014.12 1014.36 1014.52 1016.20 1016.08 1016.56 1016.28 1017.64 1019.12 1019.64 1019.64 1019.84 1019.96 1020.12 1020.32 1020.56 1020.96 1021.32 1021.48 1021.76 1022.20 1022.52 1022.84 1023.04 1023.24 1023.40 1023.48 1023.52 1023.72 1023.92 1024.28
1015.88 1015.48 1014.96 1014.36 1014.04 1013.60 1012.92 1012.24 1011.44 1010.76 1010.00 1009.48 1008.48 1007.92 1007.76 1007.68 1007.56 1007.32 1007.72 1007.92 1008.12 1008.40 1008.48 1008.64 1008.80 1008.88 1009.20 1009.32 1009.52 1009.76 1009.96 1010.04 1010.00 1010.08 1010.24 1010.36 1010.84 1011.64 1012.28 1012.68 1012.60 1012.88 1013.60 1014.28 1014.32 1014.16 1015.60 1015.60 1016.12 1016.16 1015.84 1017.44 1019.56 1019.96 1020.16 1020.36 1020.48 1020.68 1020.88 1021.20 1021.64 1022.00 1022.08 1022.44 1022.80 1022.96 1023.12 1023.32 1023.48 1023.52 1023.60 1023.76 1023.88 1024.24
1016.76 1016.12 1015.60 1015.12 1014.56 1014.00 1013.32 1012.68 1011.96 1011.20 1010.52 1009.80 1009.20 1008.40 1007.76 1007.48 1007.32 1007.52 1007.80 1008.08 1008.16 1008.36 1008.56 1008.76 1008.88 1009.08 1009.28 1009.40 1009.44 1009.68 1009.92 1010.12 1010.24 1010.24 1010.28 1010.28 1010.44 1011.00 1011.76 1011.80 1011.96 1012.80 1014.04 1014.24 1014.20 1013.76 1014.96 1015.76 1016.08 1016.08 1016.64 1016.92 1017.84 1019.36 1020.36 1020.52 1020.84 1021.08 1021.28 1021.40 1021.80 1022.16 1022.28 1022.76 1023.00 1023.24 1023.28 1023.40 1023.60 1023.64 1023.68 1023.72 1023.92 1024.08
1017.40 1016.92 1016.36 1015.72 1015.16 1014.52 1013.84 1013.20 1012.52 1011.84 1011.12 1010.44 1009.96 1009.48 1008.68 1007.92 1007.40 1007.68 1007.92 1008.20 1008.40 1008.60 1008.80 1009.04 1009.24 1009.44 1009.56 1009.72 1009.92 1010.20 1010.44 1010.56 1010.52 1010.48 1010.56 1010.64 1010.80 1010.96 1011.20 1011.48 1011.84 1012.68 1014.00 1014.20 1014.12 1013.92 1014.48 1015.68 1015.56 1015.88 1016.72 1017.12 1018.56 1018.52 1019.72 1020.64 1020.96 1021.24 1021.52 1021.84 1021.96 1022.20 1022.36 1022.84 1023.00 1023.16 1023.32 1023.60 1023.84 1023.84 1023.76 1023.84 1024.04 1024.12
1018.20 1017.60 1017.00 1016.32 1015.64 1014.96 1014.32 1013.72 1013.16 1012.52 1011.84 1010.96 1010.60 1009.80 1008.52 1008.04 1007.68 1007.92 1008.16 1008.44 1008.68 1008.92 1009.20 1009.44 1009.88 1010.20 1010.32 1010.40 1010.48 1010.56 1010.76 1010.92 1010.92 1010.92 1010.92 1010.96 1011.12 1011.52 1011.88 1012.04 1012.24 1012.80 1013.40 1013.64 1013.84 1014.04 1014.16 1015.12 1015.84 1015.60 1015.88 1016.60 1017.72 1018.76 1019.20 1020.00 1020.76 1021.08 1021.52 1022.00 1022.36 1022.56 1022.76 1022.80 1023.00 1023.24 1023.56 1023.88 1024.16 1024.08 1024.00 1024.04 1024.00 1024.04
1018.64 1018.12 1017.52 1016.80 1016.04 1015.40 1014.76 1014.28 1013.72 1013.08 1012.56 1011.84 1011.08 1010.52 1009.48 1008.80 1008.28 1008.12 1008.44 1008.80 1009.20 1009.52 1009.80 1010.16 1010.48 1010.80 1010.96 1011.04 1011.16 1011.32 1011.32 1011.20 1011.24 1011.40 1011.60 1011.88 1012.00 1012.08 1012.24 1012.52 1012.96 1013.32 1013.44 1013.68 1013.92 1014.00 1014.24 1014.60 1015.32 1015.76 1016.00 1016.60 1017.76 1018.48 1019.08 1019.60 1020.12 1020.72 1021.32 1021.84 1022.40 1022.72 1022.92 1023.00 1023.12 1023.40 1023.68 1023.96 1024.12 1024.04 1023.88 1024.04 1024.12 1024.20
1018.92 1018.48 1017.88 1017.12 1016.36 1015.76 1015.20 1014.68 1014.04 1013.48 1013.00 1012.36 1011.76 1011.48 1010.76 1009.96 1009.76 1009.64 1009.56 1009.60 1009.72 1010.16 1010.64 1010.92 1011.12 1011.32 1011.48 1011.56 1011.64 1011.64 1011.68 1011.72 1011.68 1011.84 1012.28 1012.28 1012.32 1012.68 1012.96 1013.12 1013.44 1013.76 1013.88 1014.00 1014.32 1014.56 1014.80 1014.84 1015.24 1015.72 1015.92 1016.40 1017.00 1017.76 1018.20 1019.36 1020.20 1021.00 1021.28 1021.68 1022.56 1022.84 1023.00 1023.08 1023.16 1023.44 1023.76 1023.92 1023.84 1023.72 1023.72 1023.96 1024.20 1024.24
1019.04 1018.60 1018.16 1017.52 1016.80 1016.20 1015.72 1015.12 1014.80 1014.40 1013.96 1013.24 1012.64 1012.48 1012.00 1011.52 1011.28 1011.00 1011.04 1011.08 1010.80 1011.32 1011.72 1011.72 1011.72 1011.80 1011.76 1011.88 1012.00 1011.92 1011.92 1012.04 1012.40 1012.40 1012.52 1012.64 1012.88 1012.80 1013.16 1013.64 1014.24 1014.56 1014.60 1014.64 1014.80 1014.96 1015.08 1015.24 1015.40 1015.68 1016.24 1016.80 1017.08 1017.64 1018.12 1019.08 1020.48 1020.88 1021.08 1021.40 1022.00 1022.60 1022.88 1022.92 1023.08 1023.24 1023.44 1023.56 1023.56 1023.60 1023.72 1023.80 1023.96 1024.12
1019.36 1018.92 1018.48 1018.00 1017.32 1016.80 1016.24 1015.84 1015.48 1015.00 1014.44 1013.84 1013.52 1013.44 1013.36 1013.00 1012.64 1012.28 1012.40 1012.64 1012.52 1012.48 1012.48 1012.60 1012.72 1012.68 1012.40 1012.08 1012.04 1012.28 1012.24 1012.64 1013.12 1013.20 1013.04 1013.08 1013.44 1013.40 1013.52 1013.72 1014.68 1015.12 1015.28 1015.20 1015.28 1015.36 1015.44 1015.64 1015.80 1015.80 1016.40 1017.16 1017.56 1017.84 1018.28 1018.64 1019.88 1020.80 1021.20 1021.32 1021.40 1021.92 1022.60 1022.76 1022.84 1023.00 1023.12 1023.28 1023.48 1023.64 1023.80 1023.92 1024.04 1024.16
1019.96 1019.40 1018.76 1018.08 1017.60 1017.08 1016.60 1016.24 1015.88 1015.72 1015.52 1015.32 1015.00 1014.80 1014.56 1014.24 1013.96 1013.68 1013.60 1013.52 1013.48 1013.52 1013.44 1013.36 1013.32 1013.32 1013.20 1013.04 1013.04 1013.08 1013.12 1013.48 1013.80 1013.80 1013.80 1013.72 1013.96 1014.00 1013.76 1014.20 1015.20 1015.44 1015.76 1015.92 1016.04 1016.12 1016.08 1016.20 1016.44 1016.80 1016.96 1017.12 1017.68 1018.40 1018.64 1019.12 1019.80 1020.52 1021.16 1021.40 1021.56 1021.92 1022.20 1022.32 1022.52 1022.80 1023.00 1023.24 1023.56 1023.76 1023.92 1023.96 1024.08 1024.24
1020.16 1019.72 1019.28 1019.00 1018.52 1018.20 1017.88 1017.48 1017.20 1016.92 1016.56 1016.40 1016.24 1016.08 1015.84 1015.56 1015.12 1014.76 1014.72 1015.00 1015.08 1014.84 1014.32 1014.36 1014.44 1014.44 1014.32 1014.32 1014.04 1013.84 1013.88 1014.04 1014.24 1014.32 1014.36 1014.56 1014.56 1014.68 1014.52 1015.00 1015.56 1015.76 1016.12 1016.60 1016.80 1016.92 1016.88 1017.00 1017.08 1017.28 1017.68 1018.12 1018.32 1018.44 1018.88 1019.92 1020.40 1020.56 1020.96 1021.48 1021.64 1022.00 1022.20 1022.24 1022.24 1022.56 1022.88 1023.12 1023.52 1023.80 1024.04 1024.12 1024.16 1024.28
1020.64 1020.44 1020.24 1019.96 1019.68 1019.32 1018.88 1018.56 1018.28 1018.08 1017.84 1017.60 1017.32 1017.20 1017.00 1016.72 1016.52 1016.36 1016.24 1016.08 1015.96 1015.68 1015.48 1015.36 1015.24 1015.32 1015.28 1015.36 1015.24 1015.04 1014.96 1014.80 1014.76 1014.92 1015.00 1015.36 1015.36 1015.44 1015.68 1015.96 1016.40 1016.56 1016.64 1016.92 1017.12 1017.24 1017.28 1017.40 1017.48 1017.80 1018.16 1018.72 1019.24 1019.68 1019.68 1019.88 1020.84 1021.08 1021.24 1021.52 1021.72 1022.00 1022.20 1022.20 1022.28 1022.40 1022.60 1022.92 1023.36 1023.84 1024.12 1024.32 1024.48 1024.52
1021.04 1021.00 1020.80 1020.60 1020.36 1020.08 1019.80 1019.52 1019.28 1019.04 1018.72 1018.56 1018.32 1018.16 1017.96 1017.80 1017.68 1017.60 1017.48 1017.48 1017.16 1016.84 1016.56 1016.32 1016.20 1016.08 1016.04 1016.12 1016.12 1016.16 1016.00 1015.60 1015.40 1015.52 1015.72 1015.80 1015.96 1016.16 1016.28 1016.52 1016.80 1016.92 1017.00 1017.20 1017.48 1017.56 1017.56 1017.68 1017.76 1018.08 1018.44 1018.68 1019.12 1019.84 1020.28 1020.52 1020.56 1021.16 1021.36 1021.64 1021.80 1021.96 1022.24 1022.28 1022.36 1022.52 1022.68 1023.08 1023.28 1023.80 1024.32 1024.56 1024.68 1024.84
1021.60 1021.44 1021.32 1021.16 1020.92 1020.68 1020.44 1020.24 1020.04 1019.76 1019.56 1019.32 1019.16 1018.96 1018.68 1018.68 1018.68 1018.56 1018.52 1018.44 1018.12 1017.96 1017.80 1017.68 1017.64 1017.60 1017.48 1017.36 1017.20 1017.08 1016.80 1016.40 1016.40 1016.52 1016.64 1016.80 1016.88 1017.04 1017.08 1017.12 1017.08 1017.12 1017.16 1017.56 1017.96 1018.08 1018.12 1018.20 1018.20 1018.52 1019.12 1019.56 1019.96 1020.64 1021.04 1021.16 1021.00 1020.92 1021.32 1021.88 1021.96 1022.04 1022.20 1022.28 1022.44 1022.56 1022.72 1023.08 1023.44 1023.76 1024.08 1024.48 1024.76 1024.96
1021.96 1021.80 1021.68 1021.56 1021.44 1021.24 1021.04 1020.84 1020.60 1020.40 1020.20 1020.00 1019.80 1019.64 1019.56 1019.52 1019.52 1019.40 1019.32 1019.00 1018.72 1018.64 1018.60 1018.48 1018.52 1018.60 1018.60 1018.48 1018.32 1018.12 1017.84 1017.56 1017.60 1017.60 1017.60 1017.64 1017.68 1017.72 1017.76 1017.88 1017.92 1017.96 1018.00 1018.16 1018.20 1018.36 1018.52 1018.80 1019.08 1019.36 1019.88 1020.32 1020.92 1021.56 1021.80 1021.60 1021.64 1021.68 1021.52 1021.72 1022.20 1022.24 1022.20 1022.36 1022.52 1022.76 1022.84 1022.96 1023.36 1023.60 1023.96 1024.32 1024.80 1025.04
1022.16 1022.12 1022.04 1021.92 1021.84 1021.68 1021.52 1021.36 1021.16 1020.96 1020.76 1020.60 1020.44 1020.24 1020.12 1020.04 1019.92 1019.76 1019.60 1019.40 1019.40 1019.32 1019.20 1019.12 1019.16 1019.08 1019.08 1019.08 1019.00 1018.84 1018.48 1018.24 1018.20 1018.24 1018.28 1018.20 1018.12 1018.20 1018.20 1018.36 1018.64 1018.76 1018.84 1018.84 1018.76 1018.88 1018.96 1019.24 1019.56 1019.92 1020.04 1020.68 1021.36 1021.72 1021.88 1021.88 1021.88 1022.04 1022.20 1021.88 1021.92 1022.32 1022.36 1022.44 1022.64 1022.84 1023.16 1023.36 1023.48 1023.92 1024.16 1024.36 1024.68 1024.92
1022.32 1022.32 1022.28 1022.24 1022.12 1022.04 1021.92 1021.80 1021.68 1021.52 1021.32 1021.12 1020.96 1020.80 1020.64 1020.40 1020.20 1020.04 1019.92 1019.88 1019.80 1019.72 1019.68 1019.56 1019.48 1019.40 1019.32 1019.16 1019.08 1019.04 1019.00 1018.92 1018.84 1018.68 1018.60 1018.68 1018.64 1018.52 1018.64 1018.92 1019.12 1019.24 1019.20 1019.32 1019.28 1019.28 1019.36 1019.60 1019.92 1020.12 1020.28 1020.64 1020.96 1021.12 1021.40 1021.96 1022.68 1022.76 1022.64 1022.40 1022.20 1022.24 1022.60 1022.64 1023.16 1023.40 1023.32 1023.68 1024.40 1024.60 1024.80 1024.96 1025.08 1025.24
1022.72 1022.56 1022.44 1022.32 1022.24 1022.16 1022.12 1022.04 1021.88 1021.76 1021.60 1021.40 1021.28 1021.12 1020.96 1020.76 1020.56 1020.40 1020.28 1020.16 1020.08 1019.92 1019.80 1019.76 1019.68 1019.60 1019.52 1019.40 1019.28 1019.20 1019.08 1019.04 1019.04 1018.96 1018.84 1018.80 1018.88 1018.96 1019.16 1019.36 1019.44 1019.56 1019.64 1019.76 1019.76 1019.88 1019.80 1020.00 1020.04 1020.20 1020.28 1020.44 1020.80 1021.28 1021.64 1021.92 1022.48 1022.76 1022.72 1022.68 1022.64 1022.40 1022.60 1022.72 1022.96 1023.20 1023.64 1023.92 1024.28 1024.52 1025.04 1025.04 1025.08 1025.28
1023.12 1022.88 1022.76 1022.56 1022.44 1022.32 1022.24 1022.16 1022.00 1021.84 1021.68 1021.60 1021.44 1021.28 1021.12 1021.00 1020.80 1020.64 1020.48 1020.36 1020.24 1020.16 1020.08 1020.00 1019.88 1019.80 1019.72 1019.64 1019.56 1019.52 1019.44 1019.36 1019.24 1019.20 1019.16 1019.08 1019.08 1019.20 1019.44 1019.48 1019.68 1019.68 1019.76 1020.08 1020.12 1020.12 1020.20 1020.16 1020.28 1020.40 1020.60 1021.12 1021.40 1021.44 1021.52 1021.92 1022.44 1022.76 1023.00 1023.20 1023.08 1022.96 1022.80 1022.72 1022.84 1022.96 1023.28 1023.88 1024.16 1024.44 1024.76 1024.84 1024.96 1025.12
1023.52 1023.32 1023.08 1022.88 1022.68 1022.48 1022.32 1022.20 1022.04 1021.92 1021.80 1021.76 1021.64 1021.52 1021.36 1021.24 1021.12 1020.92 1020.76 1020.56 1020.48 1020.40 1020.32 1020.20 1020.08 1020.00 1019.88 1019.80 1019.72 1019.68 1019.68 1019.60 1019.44 1019.32 1019.32 1019.36 1019.48 1019.60 1019.60 1019.64 1019.88 1020.04 1019.92 1020.12 1020.16 1020.24 1020.36 1020.48 1020.60 1020.64 1020.88 1021.08 1021.24 1021.56 1022.36 1022.56 1022.84 1023.08 1023.24 1023.28 1023.28 1023.28 1023.16 1023.08 1023.08 1023.16 1023.24 1023.32 1023.80 1024.32 1024.76 1025.04 1024.88 1025.00
1023.92 1023.72 1023.48 1023.20 1023.00 1022.76 1022.56 1022.36 1022.12 1021.96 1021.92 1021.92 1021.84 1021.72 1021.56 1021.44 1021.32 1021.24 1021.12 1020.96 1020.88 1020.68 1020.56 1020.52 1020.36 1020.20 1020.12 1019.96 1019.88 1019.80 1019.76 1019.72 1019.64 1019.52 1019.48 1019.56 1019.64 1019.76 1019.96 1020.04 1020.12 1020.12 1020.16 1020.28 1020.44 1020.44 1020.48 1020.52 1020.56 1020.84 1021.12 1021.16 1021.36 1021.72 1022.48 1022.76 1022.88 1023.08 1023.28 1023.36 1023.40 1023.40 1023.44 1023.44 1023.44 1023.44 1023.48 1023.48 1023.48 1023.56 1023.68 1023.96 1024.36 1024.84
1024.28 1024.04 1023.80 1023.60 1023.40 1023.20 1022.96 1022.72 1022.48 1022.24 1022.08 1022.00 1021.88 1021.84 1021.76 1021.68 1021.64 1021.60 1021.52 1021.32 1021.20 1021.12 1020.96 1020.76 1020.64 1020.48 1020.36 1020.24 1020.08 1020.04 1020.08 1020.00 1019.88 1019.84 1019.72 1019.64 1019.92 1020.12 1020.20 1020.36 1020.40 1020.52 1020.60 1020.60 1020.60 1020.56 1020.56 1020.52 1020.60 1020.68 1020.88 1021.28 1021.52 1022.00 1022.60 1022.96 1023.16 1023.16 1023.28 1023.48 1023.52 1023.48 1023.44 1023.48 1023.48 1023.48 1023.56 1023.68 1023.88 1024.00 1024.16 1024.20 1024.20 1024.12
1024.56 1024.32 1024.08 1023.92 1023.72 1023.52 1023.36 1023.08 1022.88 1022.72 1022.40 1022.28 1022.12 1022.00 1021.96 1021.92 1021.92 1021.88 1021.84 1021.76 1021.64 1021.44 1021.24 1021.04 1020.88 1020.76 1020.76 1020.64 1020.40 1020.36 1020.40 1020.36 1020.16 1020.04 1020.04 1020.00 1019.96 1020.16 1020.32 1020.32 1020.48 1020.56 1020.60 1020.60 1020.56 1020.68 1020.64 1020.68 1020.84 1020.92 1021.08 1021.32 1021.44 1021.88 1022.32 1022.52 1022.88 1023.44 1023.56 1023.52 1023.52 1023.64 1023.56 1023.48 1023.40 1023.40 1023.44 1023.72 1024.12 1024.20 1024.20 1024.28 1024.36 1024.52
Wind_Speed
12 10 12 10 9 9 9 10 9 7 7 7 7 9 11 10 9 7 8 8 8 9 12 8 10 9 10 10 9 11 11 13 16 11 10 11 10 16 18 18 17 17 17 17 17 15 16 15 14 14 13 13 14 15 14 13 12 11 10 8 6 6 7 9 8 7 6 8 7 8 7 8 7 6
7 8 9 10 9 9 10 10 10 10 10 9 8 9 10 9 9 7 9 8 8 7 10 9 8 10 12 10 9 10 10 16 18 12 11 11 11 19 19 18 17 17 17 17 16 16 17 16 15 15 14 15 15 15 14 13 12 11 11 10 9 8 7 7 8 7 6 5 2 6 8 8 7 6
9 11 12 10 9 9 10 9 9 10 11 9 9 9 8 8 12 11 8 8 6 7 8 8 8 10 11 10 9 9 9 15 17 13 11 11 15 20 17 19 18 18 18 17 16 16 17 17 16 16 15 15 15 15 14 14 13 12 11 12 11 11 9 9 8 9 9 7 6 5 6 7 7 7
9 8 7 8 9 9 10 9 9 10 10 10 10 10 8 8 9 9 8 10 9 5 6 4 7 11 8 11 11 10 8 13 18 12 11 12 16 13 11 18 19 18 18 17 16 16 17 17 16 16 16 16 15 15 15 14 13 13 13 12 12 12 11 11 10 10 10 9 8 7 6 7 8 8
7 7 9 11 11 9 9 10 11 11 11 10 9 9 8 9 8 8 9 10 9 3 3 4 2 6 3 8 11 12 10 10 9 10 10 11 11 11 10 11 17 18 18 17 17 17 17 17 16 17 17 17 16 16 15 15 14 14 13 13 12 12 11 11 11 10 10 8 8 7 7 7 8 8
8 9 10 10 11 12 13 12 13 11 11 10 10 9 9 9 10 10 10 9 7 8 2 5 4 5 6 7 10 13 13 12 11 11 9 8 11 11 9 10 11 18 18 18 18 17 17 17 17 17 17 16 16 15 15 14 14 13 13 13 12 12 12 11 11 9 9 7 7 7 7 7 6 6
9 10 10 11 12 10 12 11 11 10 10 10 12 12 9 10 10 10 10 8 8 9 8 4 6 5 5 9 11 12 13 14 13 12 11 11 9 8 10 10 9 16 18 19 18 18 17 17 17 17 17 16 16 16 15 15 14 14 13 13 13 12 12 11 10 10 9 8 7 7 6 6 5 7
9 10 11 12 13 14 13 12 10 9 10 11 11 10 9 10 10 10 11 11 8 8 8 8 9 10 10 11 11 10 10 13 12 11 11 10 11 10 10 11 10 14 19 19 19 18 18 18 17 17 17 16 16 15 15 15 14 14 13 13 13 12 12 11 11 10 9 8 8 7 5 5 6 8
9 8 9 9 8 10 10 8 8 8 12 10 9 10 8 9 9 8 9 10 8 6 10 8 8 7 6 3 2 9 12 10 10 9 11 12 11 11 11 10 10 15 21 19 19 18 18 18 18 18 17 16 16 16 15 15 15 14 14 13 13 13 12 11 10 9 9 8 6 5 5 5 7 8
8 8 9 8 6 7 7 7 7 7 9 8 8 9 8 9 9 10 10 9 9 10 6 3 5 7 8 4 5 8 11 13 11 9 9 9 10 10 9 9 9 8 10 9 11 13 15 17 18 18 17 17 16 16 16 16 15 15 15 14 14 13 12 11 10 9 8 7 6 5 5 5 7 9
8 8 8 8 6 6 6 6 8 9 9 10 11 11 10 11 11 11 10 11 11 9 8 9 7 7 5 6 9 11 10 12 13 13 9 9 9 9 11 10 8 7 11 14 18 16 15 16 14 17 18 18 17 17 17 16 16 15 15 15 14 13 12 11 9 8 7 6 6 6 7 7 6 7
8 8 9 9 8 7 7 7 6 7 9 9 9 9 9 9 10 10 11 11 10 9 8 7 7 3 3 3 3 4 4 10 9 10 11 12 10 10 9 11 11 8 10 11 8 9 12 13 15 16 15 17 18 17 15 16 15 16 16 15 14 13 11 10 8 7 7 7 7 7 6 6 6 5
11 8 8 7 7 8 11 10 8 10 9 8 8 8 8 10 11 11 10 12 11 10 9 8 7 8 8 8 7 8 6 10 12 12 10 11 11 11 9 9 10 10 11 9 10 10 10 10 9 9 9 11 15 15 17 13 17 17 16 16 15 12 11 9 8 8 8 8 7 6 6 6 5 5
12 9 7 7 12 14 14 12 12 13 15 14 10 9 9 10 10 11 10 9 10 12 13 12 11 10 9 10 10 11 11 11 7 8 10 10 10 8 9 7 7 9 10 10 10 10 9 10 10 9 11 11 12 10 10 10 13 17 19 16 13 12 10 10 9 8 8 7 6 6 6 5 5 4
11 10 8 6 8 11 14 14 15 16 17 17 18 18 15 13 12 11 12 12 11 10 10 11 11 11 11 10 11 12 12 12 12 12 11 10 8 10 11 10 4 5 11 10 11 10 9 10 11 10 11 11 10 10 11 17 18 18 17 15 13 12 11 10 9 9 8 7 7 6 6 6 5 4
10 10 10 8 7 9 10 9 10 12 15 17 17 18 16 16 18 16 14 12 11 10 9 10 11 11 11 12 10 9 9 9 9 10 11 12 12 11 12 10 11 9 11 11 10 10 8 10 10 10 12 11 10 12 16 19 19 18 14 13 12 11 11 11 10 9 8 8 8 7 6 6 5 5
13 11 9 8 5 5 7 8 8 9 9 13 16 16 16 14 14 15 15 16 14 13 15 14 12 13 11 11 11 12 13 10 10 8 10 12 12 12 13 11 10 6 13 9 9 10 9 10 10 10 11 9 8 9 13 16 15 13 12 13 13 13 12 11 10 10 9 9 8 7 6 6 5 5
15 15 15 11 8 7 6 7 8 8 9 9 8 9 10 10 11 11 16 18 17 13 11 9 11 12 11 12 11 14 12 10 9 11 13 13 12 12 14 13 11 8 13 14 9 6 7 10 9 12 5 4 6 7 9 15 14 14 14 14 14 13 13 13 12 12 10 9 8 7 7 7 7 7
14 14 14 15 14 11 6 5 7 8 9 9 9 8 9 9 10 9 10 11 11 10 10 12 12 10 10 11 10 7 3 11 6 8 13 15 14 12 4 4 4 8 13 14 10 10 7 7 9 5 3 3 4 2 3 15 16 17 16 16 16 16 15 15 13 12 10 9 7 7 9 9 8 9
14 13 14 14 14 15 15 14 14 11 7 7 9 8 8 8 8 8 10 14 15 13 11 11 10 8 11 14 7 8 8 7 5 6 4 4 7 10 9 9 4 5 0 1 9 5 5 8 8 3 2 4 5 4 4 11 17 17 17 17 17 17 16 15 13 11 9 7 6 8 9 9 10 10
13 12 15 14 12 14 12 18 23 21 12 8 7 7 10 11 10 8 7 8 12 12 13 15 15 13 14 15 16 19 19 10 8 6 6 5 7 11 10 7 6 3 1 2 3 5 7 5 6 6 3 3 5 5 6 6 14 18 18 18 18 17 16 15 13 12 10 9 8 8 7 10 13 13
12 15 26 22 15 14 14 20 20 20 10 8 8 7 7 8 7 6 5 6 6 5 5 5 5 9 10 13 17 18 17 15 10 8 9 6 5 7 9 8 4 3 1 1 1 7 6 7 9 9 5 7 4 4 5 7 8 14 15 18 17 16 16 15 14 12 10 9 8 7 10 14 12 8
12 13 15 23 21 17 18 22 22 22 14 7 6 7 6 7 8 11 8 8 8 6 5 3 5 2 6 8 8 9 15 18 13 9 10 8 7 7 7 8 7 6 0 0 1 7 6 10 7 13 7 5 3 3 4 5 5 5 6 8 10 15 16 15 14 12 11 10 10 13 16 15 10 7
13 12 13 15 23 23 22 22 23 23 19 10 8 5 6 5 10 7 7 6 5 4 6 6 5 5 4 6 6 6 6 6 8 9 7 9 9 8 6 4 4 3 3 0 1 9 4 6 9 1 6 13 5 3 2 3 3 4 6 8 9 11 15 15 12 14 14 12 13 13 15 14 11 7
11 12 12 12 20 23 23 22 23 23 22 17 9 8 6 6 4 4 4 4 6 5 6 6 6 6 6 6 6 6 6 5 4 4 5 7 9 10 9 10 10 6 2 1 1 10 7 5 4 4 6 4 9 9 3 3 2 3 4 7 9 7 8 8 7 8 10 13 13 13 13 13 12 9
11 12 12 12 18 22 22 21 22 23 21 21 13 13 15 7 10 7 4 5 5 6 6 6 6 6 6 6 7 7 6 5 4 5 5 5 4 3 5 11 12 7 3 1 4 6 11 6 8 9 4 8 5 8 10 5 3 4 5 6 7 8 9 8 8 8 7 6 6 7 10 12 11 11
11 10 11 12 20 21 21 20 21 22 22 18 17 21 16 6 12 9 6 5 7 7 7 7 8 7 6 6 6 7 7 6 6 6 6 7 8 10 10 11 9 11 7 7 7 6 8 6 1 4 10 11 12 9 9 8 5 5 5 7 6 6 6 7 8 7 6 6 6 10 11 11 13 12
11 11 11 13 20 20 20 20 19 21 22 18 24 23 21 15 6 6 7 7 7 7 8 9 9 7 6 6 7 6 6 7 9 9 10 9 10 11 11 12 11 7 8 7 6 7 9 9 9 9 10 11 11 10 9 4 6 7 6 6 8 7 5 6 7 7 7 6 6 5 6 6 6 8
11 14 18 19 18 19 19 19 19 17 21 25 25 25 22 18 11 9 6 7 8 8 8 8 8 8 7 6 7 6 6 7 9 10 9 10 12 13 13 12 11 9 8 7 8 6 7 9 9 7 7 9 11 10 11 9 8 6 7 10 7 7 6 6 7 8 7 6 6 6 6 7 5 5
17 17 18 18 17 16 17 15 14 13 15 21 24 24 22 15 13 11 11 8 9 9 7 7 8 7 6 7 5 6 7 8 7 7 9 9 9 10 12 13 11 10 9 8 8 8 8 8 9 9 9 8 8 9 11 13 10 9 9 9 9 7 5 6 6 6 7 6 6 6 5 6 7 6
12 14 14 12 15 14 18 18 16 16 18 17 16 15 14 14 14 14 12 10 9 8 8 8 7 6 6 6 8 8 9 10 7 6 6 9 8 9 10 13 11 11 9 10 10 9 9 8 7 10 11 8 7 8 10 12 12 10 9 9 10 10 7 5 6 7 6 6 6 5 5 5 5 4
11 11 12 14 13 14 14 14 13 14 13 13 14 13 13 13 14 16 18 16 12 10 8 7 7 8 7 8 8 8 9 9 7 6 6 7 8 6 9 13 10 10 9 9 10 11 11 10 10 9 8 8 11 8 9 10 10 10 8 7 8 7 6 7 7 7 7 7 7 6 5 6 6 4
10 11 12 12 13 13 13 13 13 13 13 13 13 15 14 12 12 13 14 13 12 10 11 11 10 9 8 8 7 8 9 9 8 7 9 8 8 7 9 11 9 9 10 9 9 9 10 11 12 13 12 10 8 10 12 9 7 8 9 7 7 7 5 5 6 7 7 7 6 6 5 4 4 4
10 10 11 11 11 12 11 12 12 12 11 11 12 12 12 12 12 12 12 12 12 11 11 11 11 10 9 10 9 8 8 9 9 9 9 7 7 9 8 10 9 7 8 9 8 8 8 9 10 11 13 13 12 11 7 10 8 7 7 7 7 7 5 5 5 6 6 7 8 7 6 5 4 4
10 10 11 11 11 10 10 10 10 10 11 11 10 10 10 11 11 11 11 10 9 10 11 12 11 11 11 10 9 9 8 9 10 10 9 9 9 8 8 8 8 8 8 8 8 6 8 9 10 10 10 10 11 10 14 8 8 8 6 6 5 7 5 4 6 6 6 6 7 7 5 5 5 3
9 9 9 10 10 10 10 10 9 9 9 10 10 9 10 10 10 10 10 9 9 9 9 10 10 10 10 10 10 9 9 9 10 9 9 8 8 8 8 8 7 7 7 6 5 4 5 7 8 10 10 8 9 7 6 12 9 4 9 4 4 5 4 4 5 5 6 6 7 7 6 5 5 2
7 8 9 9 9 9 9 9 8 9 9 9 9 9 9 9 9 9 8 8 9 9 8 8 8 7 7 7 8 8 8 8 8 7 6 6 6 6 6 5 5 5 6 6 5 5 4 6 6 9 9 8 9 8 3 2 10 11 4 8 3 3 5 5 6 6 5 6 6 7 6 6 4 3
7 7 8 8 9 9 8 8 8 9 9 8 8 8 8 8 8 8 8 9 9 8 8 8 7 7 6 6 5 6 7 6 5 6 5 5 6 5 5 5 6 6 6 6 7 7 6 6 6 6 8 9 9 8 6 2 3 7 10 4 6 3 5 7 6 6 3 3 5 3 6 6 5 6
7 7 7 7 7 7 8 7 7 8 8 8 8 8 8 8 8 8 8 8 7 7 6 6 6 6 7 6 6 6 6 6 6 5 5 5 4 4 5 6 6 5 8 7 7 7 7 6 6 6 8 8 7 6 6 6 4 1 8 10 6 7 5 7 6 5 6 5 5 6 6 3 6 7
7 5 5 5 5 5 6 6 6 5 6 6 6 5 6 7 6 7 7 7 7 7 6 6 6 6 6 6 5 5 6 5 6 5 5 5 5 5 6 6 6 6 7 7 7 6 7 6 6 6 6 7 5 5 6 6 4 2 5 10 11 6 6 6 6 6 4 4 7 8 6 4 4 2
7 7 6 5 4 4 4 4 4 4 4 5 5 5 5 5 5 5 5 5 5 6 6 6 5 5 5 5 5 5 5 5 5 5 5 5 6 5 7 7 6 6 7 6 6 6 5 4 4 8 9 7 6 6 7 7 6 3 5 5 8 10 7 5 6 5 4 3 7 8 7 5 4 3
7 7 7 6 6 5 5 3 3 3 5 6 6 6 6 5 6 7 6 6 5 5 5 5 5 5 5 5 5 5 5 4 4 5 5 5 6 6 6 6 6 5 7 6 5 5 3 2 4 8 8 7 7 7 6 7 6 4 3 2 3 6 9 10 8 5 6 7 7 6 3 3 3 2
7 7 7 7 7 7 7 7 5 4 4 4 5 5 5 6 6 7 6 6 6 6 5 5 5 4 5 4 5 4 5 5 4 4 5 5 6 6 5 5 5 6 6 4 2 2 1 3 6 6 6 5 3 5 8 7 6 5 3 3 2 2 3 5 6 6 6 5 5 5 4 6 5 2
7 7 7 6 7 7 7 7 7 6 4 3 2 3 4 5 6 6 6 6 6 5 5 5 5 5 5 4 5 5 6 5 5 5 5 4 5 6 6 5 5 4 5 5 3 2 2 3 3 6 6 5 4 6 7 6 5 5 5 3 1 3 3 2 3 4 4 7 9 10 10 7 4 7
7 7 7 7 7 7 7 7 7 7 7 5 3 3 4 5 6 6 7 7 6 7 6 6 6 6 6 6 6 6 5 5 6 5 5 5 4 5 5 5 5 5 4 4 5 3 3 4 3 5 5 6 5 6 7 7 6 5 4 4 5 3 2 0 3 4 3 3 5 7 7 6 6 6
Wind_Direction
253 244 234 233 227 218 210 206 203 203 211 208 193 185 191 195 199 190 213 213 208 209 210 202 205 184 185 182 169 168 173 170 168 173 172 173 171 175 175 178 176 176 178 180 181 179 176 179 180 178 175 169 166 162 161 162 164 165 165 157 141 134 144 160 171 184 188 188 173 164 158 149 152 157
265 260 248 241 233 220 213 211 195 195 200 206 201 201 200 180 190 213 203 221 205 208 207 204 191 190 189 173 168 168 172 170 169 170 174 173 175 173 175 178 177 177 179 181 181 179 179 180 182 179 174 173 171 167 166 169 171 172 172 171 158 157 156 165 176 185 195 211 155 173 165 167 171 178
232 230 235 236 242 233 224 214 204 204 202 203 203 211 194 185 187 202 204 215 234 197 206 206 193 191 185 170 166 169 167 172 171 169 172 176 175 172 176 177 179 179 180 181 181 180 180 181 183 181 178 178 177 174 175 177 179 181 179 176 172 171 172 178 188 198 207 214 212 191 185 186 189 200
236 237 240 240 239 229 217 217 215 214 205 199 200 205 197 196 197 192 197 208 222 198 168 232 256 196 186 164 165 164 164 176 175 167 172 173 169 173 177 180 180 182 182 182 184 181 181 181 183 182 181 183 182 182 183 184 186 186 184 182 182 181 181 186 193 205 214 218 223 224 209 209 216 222
224 226 233 240 241 239 228 214 207 203 197 195 200 202 191 193 198 191 205 210 220 234 196 175 165 311 237 171 171 160 163 170 180 172 171 165 170 175 177 181 184 184 184 184 185 183 181 182 183 184 184 185 186 187 187 186 189 189 189 190 191 190 190 193 198 207 217 217 222 230 233 231 233 234
255 249 244 235 231 224 222 213 207 201 197 199 199 207 189 192 202 200 200 213 209 217 138 171 169 173 228 212 180 164 167 174 173 171 170 174 175 174 175 177 188 189 187 186 188 186 183 184 185 185 186 187 188 188 188 189 189 191 194 198 199 199 199 202 202 205 213 221 223 226 233 239 245 249
259 253 244 239 233 225 222 219 210 198 202 202 204 204 196 196 197 194 193 190 212 207 214 163 180 179 190 213 187 179 172 171 175 171 173 173 180 180 176 179 184 192 189 189 190 189 187 186 187 187 188 190 190 190 190 191 191 194 197 202 205 206 207 209 208 207 210 214 220 229 238 246 254 257
262 254 252 242 229 221 216 212 213 206 201 205 206 204 194 197 192 189 196 205 203 197 205 186 193 189 188 211 182 178 169 168 176 180 171 172 176 177 182 183 185 190 192 190 191 192 191 188 189 189 190 192 192 193 193 192 194 196 200 204 207 209 212 213 214 214 213 217 224 231 235 242 252 260
275 269 268 273 272 251 223 195 214 202 206 208 201 202 196 198 201 192 190 194 187 183 205 196 202 184 193 145 143 176 164 176 180 179 169 177 179 181 181 183 192 185 190 191 193 195 194 192 192 192 192 192 194 195 195 196 196 199 202 206 209 212 214 215 215 216 217 222 228 240 245 247 259 263
267 265 266 268 259 234 215 209 216 219 217 214 212 213 215 208 201 198 202 197 200 199 194 189 203 190 187 166 146 208 178 169 177 182 175 179 180 175 177 190 188 183 182 188 197 199 199 199 196 194 194 194 195 197 198 199 199 200 203 207 210 212 213 214 214 214 217 219 218 225 239 244 248 258
270 263 266 267 256 244 234 221 215 214 215 215 215 212 211 203 193 198 201 196 198 196 179 194 209 205 197 159 170 189 191 176 179 173 168 187 186 182 179 185 194 177 186 197 190 189 192 197 199 199 197 196 198 199 201 202 202 202 206 209 210 212 211 211 209 209 208 210 214 218 226 237 252 266
275 261 259 255 250 241 234 225 218 215 222 218 214 208 206 209 191 192 194 200 198 196 189 179 190 229 178 176 109 90 217 185 187 188 174 181 184 187 190 187 182 181 176 187 200 209 202 203 204 203 202 203 203 203 204 206 204 207 209 211 211 210 208 205 203 200 202 207 215 224 229 232 237 252
290 269 257 256 258 256 250 232 212 213 216 218 222 221 205 209 203 192 195 191 189 198 199 192 181 182 186 188 162 151 156 191 197 185 177 185 186 184 182 195 190 173 177 189 186 193 190 193 199 195 203 215 211 211 205 207 208 210 211 212 209 205 200 196 193 194 201 210 219 222 224 226 226 227
305 288 258 248 247 252 252 241 225 217 220 224 224 228 220 207 201 193 196 200 191 185 194 191 184 188 186 184 173 173 179 184 206 189 186 187 187 175 189 181 196 181 173 168 185 201 189 188 195 194 208 217 204 209 202 210 206 211 211 209 201 194 190 188 187 194 202 207 210 211 209 205 203 200
305 303 281 254 254 256 259 254 240 227 223 217 218 227 219 212 204 193 194 187 189 197 195 192 189 186 188 189 183 180 179 185 197 191 193 188 169 178 179 197 204 201 172 173 181 200 188 182 192 200 209 209 201 203 208 209 210 211 206 199 190 185 182 182 187 190 194 193 193 191 187 181 170 172
305 302 298 281 264 252 246 243 243 236 228 224 223 223 229 219 208 202 193 188 193 188 201 204 194 188 193 193 185 177 167 181 214 211 190 190 184 184 189 189 193 190 175 169 180 200 178 186 197 198 212 207 200 202 207 205 206 208 195 185 179 175 176 180 179 179 178 177 181 174 163 151 145 137
326 317 301 290 278 283 292 264 243 234 232 225 224 230 231 239 231 210 208 209 195 183 192 198 201 197 191 193 193 187 186 164 183 216 203 196 191 192 192 194 189 156 173 165 183 192 187 178 194 208 218 203 197 207 209 206 203 194 179 167 170 177 175 169 166 161 165 168 162 155 142 131 128 123
340 336 333 312 279 270 260 244 248 243 234 233 218 223 229 233 236 238 215 207 209 200 197 199 203 201 192 197 194 193 169 161 183 197 210 199 193 191 200 194 186 169 163 178 172 187 181 188 182 213 201 159 177 200 201 190 179 169 165 163 167 164 158 153 152 157 156 155 157 155 140 127 126 124
351 351 354 349 334 309 266 246 248 241 230 234 229 219 227 220 230 212 212 214 212 209 201 201 209 201 200 207 199 141 184 195 185 197 208 201 195 187 167 159 169 159 179 178 160 197 181 168 189 195 95 82 73 22 193 171 165 160 157 156 154 150 147 150 150 147 149 154 154 133 121 128 127 118
351 348 357 356 346 341 331 333 313 267 240 239 227 226 230 234 214 208 208 212 212 214 210 210 206 198 196 201 171 144 183 168 140 125 95 130 148 154 161 171 128 134 337 174 185 163 140 173 159 91 57 86 76 49 70 147 144 148 149 146 146 145 144 141 138 135 133 132 120 101 105 113 110 100
353 353 359 359 351 342 334 331 328 319 270 242 238 223 224 223 213 204 182 192 218 230 229 218 214 206 199 193 168 166 181 167 151 123 112 147 156 158 161 153 124 154 154 20 130 111 127 150 118 103 44 65 84 86 101 117 137 138 141 144 143 142 137 132 130 129 122 107 91 86 105 115 106 97
356 356 2 5 360 350 344 340 337 322 291 243 236 230 224 221 224 230 193 179 209 229 257 299 238 189 196 192 184 185 182 161 162 155 170 171 136 156 155 156 134 157 107 126 166 107 143 122 117 105 108 76 37 73 93 108 126 134 140 145 141 131 122 120 113 108 101 95 87 89 115 122 114 98
357 354 358 1 1 355 348 354 353 342 324 253 246 238 221 220 211 222 199 191 191 180 169 161 151 155 199 184 164 177 170 166 176 179 170 150 160 175 175 140 131 119 117 261 270 118 150 132 151 133 121 66 32 37 66 101 123 130 113 97 95 108 112 110 108 102 94 87 86 95 117 127 120 109
359 358 357 358 0 355 357 357 2 355 353 330 286 253 235 226 227 209 188 208 186 168 177 171 164 143 117 125 120 120 133 157 182 188 176 170 167 178 163 124 92 115 151 322 353 118 104 140 150 353 135 139 158 149 70 86 85 91 102 105 98 107 107 106 102 108 108 101 96 97 112 126 125 115
356 356 359 356 356 357 1 2 2 7 2 359 331 296 262 225 221 145 175 138 141 140 146 136 128 121 116 112 111 110 110 106 102 134 162 175 179 174 165 164 153 135 166 214 260 131 137 155 134 105 85 60 125 131 135 103 75 89 104 115 121 122 115 112 116 111 103 97 97 98 106 120 128 130
1 358 356 354 356 359 4 4 6 8 9 7 12 327 312 276 157 158 116 111 106 114 116 114 107 105 108 105 93 87 76 60 70 89 94 94 87 83 137 155 150 142 158 248 125 122 124 148 163 132 122 121 125 128 135 141 145 131 111 109 121 130 125 131 122 115 112 107 95 103 111 110 117 126
353 351 352 353 0 5 6 8 9 12 10 14 4 351 358 279 144 123 117 111 101 99 97 89 82 72 70 78 82 90 89 76 71 68 71 81 89 85 77 77 88 115 140 126 117 115 116 110 38 132 138 138 134 140 133 142 148 130 126 121 121 124 129 131 126 125 124 115 111 106 100 101 104 105
353 351 354 358 5 8 9 10 12 18 17 17 15 8 14 19 52 101 108 100 99 95 92 90 87 77 67 69 69 67 78 93 88 76 73 70 73 80 82 79 77 75 87 88 91 111 123 126 127 126 122 125 129 141 136 94 120 137 130 124 133 142 148 139 129 128 125 127 132 134 116 105 98 95
353 351 352 0 8 13 13 10 16 20 19 21 24 17 17 27 35 28 54 88 96 89 88 96 94 87 77 84 90 85 81 79 79 87 82 86 93 91 79 76 73 66 66 77 84 84 97 118 122 112 111 132 141 149 142 142 129 123 128 119 122 150 155 155 145 144 147 152 157 147 134 134 131 123
353 355 355 359 7 16 16 20 18 19 17 25 29 24 22 31 28 36 35 30 66 75 64 65 80 85 92 82 78 79 73 70 69 87 104 102 90 91 96 84 69 63 60 64 73 79 90 102 112 113 102 99 121 132 132 126 124 129 127 123 125 112 134 152 150 145 145 148 140 134 135 131 136 134
356 356 359 3 10 15 21 26 23 23 19 25 27 29 25 30 31 34 38 34 41 46 63 63 51 46 58 70 68 64 68 65 47 29 86 92 91 94 94 96 89 78 62 61 58 60 71 72 77 104 108 103 91 111 126 122 125 131 127 133 139 136 160 147 138 138 142 129 121 107 107 102 103 110
357 357 360 11 14 15 20 19 23 22 23 26 25 27 24 28 35 37 39 39 36 36 32 51 53 44 40 56 66 66 68 68 55 40 56 76 87 84 102 92 92 93 83 69 66 59 61 66 74 64 69 95 111 107 97 107 117 121 119 120 110 111 127 133 124 128 134 128 116 119 126 127 126 128
7 8 14 14 15 18 18 21 22 21 22 23 24 26 23 24 29 37 36 36 31 25 37 40 43 44 41 41 43 65 68 66 65 47 59 43 64 66 75 90 98 96 96 86 77 73 74 73 70 76 74 61 60 97 109 100 96 109 118 117 116 114 122 117 119 123 127 113 116 120 110 108 132 139
21 17 16 15 14 15 18 22 22 20 21 22 24 24 22 25 28 31 33 32 28 28 37 39 41 41 43 41 34 45 59 66 64 58 62 57 57 69 70 81 78 76 84 91 89 88 84 82 83 79 79 75 66 48 73 114 113 118 114 124 119 117 122 117 113 120 121 129 126 110 106 88 60 68
27 20 20 16 13 14 18 22 21 20 23 24 23 24 26 31 29 30 33 24 27 31 31 33 35 37 42 44 41 47 44 56 59 55 52 59 56 65 73 77 80 75 78 79 77 79 84 85 86 82 76 78 69 54 39 40 125 111 110 96 115 117 127 127 117 111 114 112 113 117 108 89 70 45
30 24 25 19 16 12 17 17 17 20 25 24 27 25 29 29 25 27 29 20 34 37 39 40 40 38 37 37 38 37 37 47 51 51 56 60 68 65 63 66 69 69 74 76 78 69 77 84 90 89 89 79 87 66 30 15 33 117 112 116 107 118 120 112 104 108 105 104 121 127 134 145 146 120
31 26 25 24 19 15 14 13 16 20 21 23 25 28 30 30 22 24 20 22 39 38 37 43 44 40 40 42 52 51 50 56 64 54 59 55 63 75 85 78 76 68 59 52 60 50 54 66 75 103 105 103 104 111 94 302 31 28 108 119 100 87 119 102 98 89 112 121 123 135 147 146 155 176
37 26 26 27 25 18 19 17 18 21 20 21 24 26 29 28 27 26 23 33 31 31 31 39 38 40 44 46 52 58 57 53 56 58 52 53 66 71 81 84 72 75 78 67 70 73 82 94 96 105 113 118 126 124 124 36 1 8 359 88 106 90 89 99 97 120 99 48 92 89 112 122 151 169
30 30 31 30 27 28 26 22 21 23 23 24 27 27 25 25 25 25 27 31 31 34 36 41 48 53 57 57 55 58 59 53 55 52 56 58 72 82 73 78 81 71 75 65 59 67 76 87 107 121 125 126 130 150 139 125 99 112 11 24 108 95 71 105 99 84 92 92 77 67 59 73 76 87
14 24 24 27 31 32 33 28 24 17 19 18 20 13 18 21 21 24 27 26 29 29 38 42 42 42 42 41 45 46 51 57 60 57 50 52 56 71 82 88 92 91 83 79 75 66 77 88 111 129 134 125 125 119 123 110 116 61 44 25 22 96 151 122 114 117 79 108 122 100 109 113 123 184
8 16 11 9 10 20 32 25 23 19 13 2 1 358 360 0 7 9 16 21 27 33 35 34 40 46 42 42 42 50 47 31 32 35 48 52 49 60 93 96 84 83 87 81 88 87 98 126 110 96 101 106 115 110 81 79 76 66 51 13 17 32 60 103 137 128 132 135 121 125 135 153 151 134
12 14 13 8 3 348 354 355 353 3 359 355 359 359 1 10 12 15 14 13 22 25 36 34 34 40 40 40 47 54 60 47 37 35 48 64 67 74 89 98 101 99 102 110 117 130 157 115 96 95 108 107 103 96 115 122 125 111 103 42 11 18 38 48 61 91 142 141 119 112 91 56 78 62
9 6 3 2 8 7 3 354 342 341 350 3 20 24 29 20 16 16 13 15 16 22 22 25 20 31 22 19 18 34 50 48 59 54 47 57 76 92 94 92 107 117 120 127 121 115 102 96 97 97 108 113 108 113 137 150 142 140 122 98 84 28 36 42 62 66 62 73 121 143 161 159 132 144
4 3 356 354 359 3 360 1 358 355 9 43 54 30 28 25 20 15 16 12 18 18 13 22 22 36 27 15 18 20 26 21 28 42 37 44 79 96 104 104 100 98 101 109 100 77 60 53 58 98 101 119 121 115 137 136 148 154 150 148 92 82 90 25 18 30 37 58 59 59 65 80 119 151
2 3 0 360 353 0 0 0 5 5 10 0 19 28 20 28 28 20 15 16 12 10 11 9 9 10 22 28 42 43 34 39 40 33 48 39 45 75 93 105 108 107 113 123 102 85 79 84 70 68 77 89 103 130 147 148 151 143 143 134 144 158 159 90 99 95 83 67 69 96 90 87 76 70